Boone, NC

8:56 PM EST on November 16, 2019 (GMT -0500)
Boone

Weather History for KTNB - September, 2019

Change the Weather History Date:

Sunday, September 1, 2019

  Actual Average (WUND) Record (WUND)
Temperature  
Mean Temperature 64 °F -  
Max Temperature 77 °F - - (-1)
Min Temperature 51 °F - - (-1)
Degree Days  
Heating Degree Days 1    
Growing Degree Days 14 (Base 50)    
Moisture  
Dew Point 57 °F    
Average Humidity 82    
Maximum Humidity 100    
Minimum Humidity 54    
Precipitation  
Precipitation 0.00 in - - ()
Sea Level Pressure  
Sea Level Pressure 30.30 in    
Wind  
Wind Speed 0 mph ()    
Max Wind Speed 7 mph    
Max Gust Speed -    
Visibility 8.2 miles    
Events      
Averages and records for this station are not official NWS values.
T = Trace of Precipitation, MM = Missing Value Source: Averaged Metar Reports

Daily Weather History Graph

Daily Weather History Graph

Search for Another Location

Airport or City:

Astronomy

Sep. 01, 2019 Rise Set
Actual Time 6:58 AM EDT 7:54 PM EDT
Civil Twilight 6:31 AM EDT 8:20 PM EDT
Nautical Twilight 6:00 AM EDT 8:52 PM EDT
Astronomical Twilight 5:28 AM EDT 9:24 PM EDT
Moon 9:23 AM EDT (9/1) 9:46 PM EDT (9/1)
Length of Visible Light 13h 49m
Length of Day
12h 56m
Waxing Crescent, 8% of the Moon is Illuminated
Sep 1
Waxing Crescent
Sep 5
First Quarter
Sep 14
Full
Sep 21
Last Quarter
Sep 28
New

Hourly Weather History & Observations

Time (EDT) Temp. Dew Point Humidity Pressure Visibility Wind Dir Wind Speed Gust Speed Precip Events Conditions
12:15 AM 57.7 °F 57.7 °F 100% 30.33 in 4.0 mi Calm Calm - N/A   Clear
12:35 AM 57.9 °F 57.9 °F 100% 30.32 in 7.0 mi Calm Calm - N/A   Clear
12:55 AM 57.2 °F 57.2 °F 100% 30.32 in 7.0 mi Calm Calm - N/A   Clear
1:15 AM 55.9 °F 55.9 °F 100% 30.32 in 4.0 mi Calm Calm - N/A   Clear
1:35 AM 55.6 °F 55.6 °F 100% 30.32 in 3.0 mi Calm Calm - N/A   Clear
1:55 AM 56.5 °F 56.5 °F 100% 30.32 in 7.0 mi Calm Calm - N/A   Scattered Clouds
2:15 AM 56.8 °F 56.8 °F 100% 30.32 in 10.0 mi Calm Calm - N/A   Clear
2:35 AM 55.6 °F 55.6 °F 100% 30.31 in 5.0 mi Calm Calm - N/A   Clear
2:55 AM 55.6 °F 55.6 °F 100% 30.31 in 3.0 mi Calm Calm - N/A   Clear
3:15 AM 55.6 °F 55.6 °F 100% 30.31 in 7.0 mi Calm Calm - N/A   Clear
3:35 AM 54.9 °F 54.9 °F 100% 30.31 in 4.0 mi Calm Calm - N/A   Clear
3:55 AM 54.0 °F 54.0 °F 100% 30.30 in 2.5 mi Calm Calm - N/A   Clear
4:15 AM 55.4 °F 55.4 °F 100% 30.30 in 10.0 mi Calm Calm - N/A   Clear
4:35 AM 54.9 °F 54.9 °F 100% 30.30 in 10.0 mi Calm Calm - N/A   Clear
4:55 AM 55.4 °F 55.4 °F 100% 30.30 in 10.0 mi Calm Calm - N/A   Clear
5:15 AM 54.5 °F 54.5 °F 100% 30.30 in 7.0 mi Calm Calm - N/A   Clear
5:35 AM 52.9 °F 52.9 °F 100% 30.30 in 4.0 mi Calm Calm - N/A   Clear
5:55 AM 53.6 °F 53.6 °F 100% 30.30 in 4.0 mi Calm Calm - N/A   Clear
6:15 AM 52.3 °F 52.3 °F 100% 30.30 in 3.0 mi Calm Calm - N/A   Clear
6:35 AM 52.0 °F 52.0 °F 100% 30.31 in 4.0 mi Calm Calm - N/A   Clear
6:55 AM 52.5 °F 52.5 °F 100% 30.31 in 4.0 mi Calm Calm - N/A   Clear
7:15 AM 51.8 °F 51.8 °F 100% 30.32 in 3.0 mi Calm Calm - N/A   Clear
7:35 AM 52.0 °F 52.0 °F 100% 30.32 in 2.5 mi Calm Calm - N/A   Clear
7:55 AM 53.1 °F 53.1 °F 100% 30.32 in 5.0 mi Calm Calm - N/A   Clear
8:15 AM 54.7 °F 54.7 °F 100% 30.32 in 10.0 mi Calm Calm - N/A   Clear
8:35 AM 56.3 °F 56.3 °F 100% 30.33 in 10.0 mi Calm Calm - N/A   Clear
8:55 AM 58.8 °F 58.3 °F 98% 30.33 in 10.0 mi Calm Calm - N/A   Clear
9:15 AM 61.5 °F 59.4 °F 93% 30.33 in 10.0 mi Calm Calm - N/A   Clear
9:35 AM 64.8 °F 59.2 °F 82% 30.33 in 10.0 mi Calm Calm - N/A   Clear
10:15 AM 70.0 °F 58.5 °F 67% 30.33 in 10.0 mi Calm Calm - N/A   Scattered Clouds
10:35 AM 71.6 °F 57.7 °F 62% 30.34 in 10.0 mi Calm Calm - N/A   Mostly Cloudy
10:55 AM 72.3 °F 56.8 °F 58% 30.34 in 10.0 mi Calm Calm - N/A   Mostly Cloudy
11:15 AM 72.3 °F 56.7 °F 58% 30.34 in 10.0 mi SSE 4.6 mph - N/A   Scattered Clouds
11:35 AM 74.3 °F 56.5 °F 54% 30.34 in 10.0 mi ESE 6.9 mph - N/A   Scattered Clouds
11:55 AM 73.0 °F 56.8 °F 57% 30.34 in 10.0 mi Calm Calm - N/A   Mostly Cloudy
12:15 PM 73.8 °F 57.7 °F 57% 30.34 in 10.0 mi Calm Calm - N/A   Scattered Clouds
12:35 PM 72.7 °F 57.7 °F 59% 30.33 in 10.0 mi Calm Calm - N/A   Scattered Clouds
12:55 PM 71.8 °F 58.8 °F 64% 30.33 in 10.0 mi Calm Calm - N/A   Mostly Cloudy
1:15 PM 71.6 °F 58.8 °F 64% 30.33 in 10.0 mi Calm Calm - N/A   Overcast
1:35 PM 71.4 °F 58.6 °F 64% 30.33 in 10.0 mi ESE 3.5 mph - N/A   Overcast
1:55 PM 72.5 °F 59.0 °F 62% 30.32 in 10.0 mi East 6.9 mph - N/A   Scattered Clouds
2:15 PM 75.7 °F 59.2 °F 56% 30.31 in 10.0 mi Calm Calm - N/A   Clear
2:35 PM 74.3 °F 59.9 °F 61% 30.30 in 10.0 mi Calm Calm - N/A   Clear
2:55 PM 77.0 °F 59.4 °F 54% 30.29 in 10.0 mi Calm Calm - N/A   Clear
3:15 PM 77.0 °F 59.5 °F 55% 30.28 in 10.0 mi Calm Calm - N/A   Clear
3:35 PM 72.0 °F 59.2 °F 64% 30.28 in 10.0 mi ESE 5.8 mph - N/A   Clear
3:55 PM 76.3 °F 59.2 °F 55% 30.27 in 10.0 mi Calm Calm - N/A   Clear
4:15 PM 75.6 °F 59.2 °F 57% 30.27 in 10.0 mi Calm Calm - N/A   Clear
4:35 PM 73.9 °F 58.6 °F 59% 30.27 in 10.0 mi Calm Calm - N/A   Clear
4:55 PM 75.2 °F 59.0 °F 57% 30.26 in 10.0 mi Calm Calm - N/A   Clear
5:15 PM 72.3 °F 58.1 °F 61% 30.26 in 10.0 mi Calm Calm - N/A   Clear
5:35 PM 72.7 °F 57.9 °F 60% 30.26 in 10.0 mi Calm Calm - N/A   Clear
5:55 PM 72.5 °F 58.6 °F 62% 30.26 in 10.0 mi Calm Calm - N/A   Clear
6:15 PM 72.3 °F 58.3 °F 61% 30.26 in 10.0 mi East 3.5 mph - N/A   Clear
6:35 PM 71.6 °F 58.3 °F 63% 30.26 in 10.0 mi Calm Calm - N/A   Clear
6:55 PM 70.9 °F 58.1 °F 64% 30.27 in 10.0 mi Calm Calm - N/A   Scattered Clouds
7:15 PM 69.8 °F 58.3 °F 67% 30.27 in 10.0 mi Calm Calm - N/A   Mostly Cloudy
7:35 PM 68.4 °F 58.8 °F 71% 30.27 in 10.0 mi Calm Calm - N/A   Mostly Cloudy
7:55 PM 66.6 °F 59.0 °F 77% 30.27 in 10.0 mi Calm Calm - N/A   Mostly Cloudy
8:15 PM 65.5 °F 58.6 °F 79% 30.27 in 10.0 mi Calm Calm - N/A   Scattered Clouds
8:35 PM 65.1 °F 58.3 °F 78% 30.28 in 10.0 mi Calm Calm - N/A   Clear
8:55 PM 64.4 °F 58.6 °F 82% 30.28 in 10.0 mi Calm Calm - N/A   Clear
9:15 PM 62.4 °F 58.6 °F 87% 30.28 in 10.0 mi Calm Calm - N/A   Clear
9:35 PM 61.3 °F 60.3 °F 96% 30.29 in 10.0 mi Calm Calm - N/A   Clear
9:55 PM 60.3 °F 60.3 °F 100% 30.29 in 10.0 mi Calm Calm - N/A   Clear
10:15 PM 59.7 °F 59.7 °F 100% 30.29 in 10.0 mi Calm Calm - N/A   Clear
10:35 PM 59.0 °F 59.0 °F 100% 30.29 in 7.0 mi Calm Calm - N/A   Clear
10:55 PM 58.3 °F 58.3 °F 100% 30.29 in 7.0 mi Calm Calm - N/A   Clear
11:15 PM 58.3 °F 58.3 °F 100% 30.29 in 7.0 mi Calm Calm - N/A   Clear
11:35 PM 58.5 °F 58.5 °F 100% 30.28 in 10.0 mi Calm Calm - N/A   Clear
11:55 PM 57.2 °F 57.2 °F 100% 30.28 in 4.0 mi Calm Calm - N/A   Clear